Fargo, ND

9:03 PM CDT on August 18, 2017 (GMT -0500)
Hector International

Weather History for KFAR - October, 2014

Change the Weather History Date:

Sunday, October 19, 2014

  Actual Average Record
Temperature  
Mean Temperature 56 °F 44 °F  
Max Temperature 71 °F 55 °F 84 °F (2003)
Min Temperature 40 °F 34 °F 12 °F (1917)
Degree Days  
Heating Degree Days 9 21  
Month to date heating degree days 293 319  
Since 1 July heating degree days 485 589  
Cooling Degree Days 0 0  
Month to date cooling degree days 0 0  
Year to date cooling degree days 544 548  
Growing Degree Days 5 (Base 50)    
Moisture  
Dew Point 40 °F    
Average Humidity 63    
Maximum Humidity 92    
Minimum Humidity 33    
Precipitation  
Precipitation 0.00 in 0.07 in 1.26 in (1934)
Month to date precipitation 0.21 1.47  
Year to date precipitation 19.12 20.10  
Snow  
Snow 0.00 in 0.00 in 0.40 in (1913)
Month to date snowfall T 0.2  
Since 1 July snowfall T 0.2  
Since 1 September snowfall T 0.2  
Snow Depth 0.00 in    
Sea Level Pressure  
Sea Level Pressure 29.86 in    
Wind  
Wind Speed 10 mph (WSW)    
Max Wind Speed 23 mph    
Max Gust Speed 29 mph    
Visibility 10 miles    
Events      
T = Trace of Precipitation, MM = Missing Value Source: NWS Daily Summary

Daily Weather History Graph

Daily Weather History Graph

Search for Another Location

Airport or City:

Trip Planner

Search our weather history database for the weather conditions in past years. The results will help you decide how hot, cold, wet, or windy it might be!

Date:

Astronomy

Oct. 19, 2014 Rise Set
Actual Time 7:50 AM CDT 6:32 PM CDT
Civil Twilight 7:20 AM CDT 7:03 PM CDT
Nautical Twilight 6:44 AM CDT 7:38 PM CDT
Astronomical Twilight 6:09 AM CDT 8:13 PM CDT
Moon 3:30 AM CDT 4:38 PM CDT
Length of Visible Light 11h 43m
Length of Day
10h 41m
Waning Crescent, 16% of the Moon is Illuminated
Oct 19
Waning Crescent
Oct 23
New
Oct 30
First Quarter
Nov 6
Full
Nov 14
Last Quarter

Hourly Weather History & Observations

Time (CDT) Temp. Windchill Dew Point Humidity Pressure Visibility Wind Dir Wind Speed Gust Speed Precip Events Conditions
12:53 AM 43.0 °F 35.7 °F 37.9 °F 82% 29.93 in 10.0 mi SSE 15.0 mph - N/A   Clear
1:53 AM 43.0 °F 36.4 °F 37.9 °F 82% 29.89 in 10.0 mi South 12.7 mph - N/A   Clear
2:53 AM 43.0 °F 37.2 °F 37.9 °F 82% 29.88 in 10.0 mi South 10.4 mph - N/A   Clear
3:53 AM 43.0 °F 37.2 °F 37.9 °F 82% 29.85 in 10.0 mi SSE 10.4 mph - N/A   Clear
4:53 AM 42.1 °F 36.6 °F 37.9 °F 85% 29.83 in 10.0 mi South 9.2 mph - N/A   Clear
5:53 AM 43.0 °F 36.4 °F 37.9 °F 82% 29.81 in 10.0 mi South 12.7 mph - N/A   Clear
6:53 AM 43.0 °F 37.2 °F 37.9 °F 82% 29.81 in 10.0 mi South 10.4 mph - N/A   Clear
7:53 AM 39.9 °F 34.5 °F 37.0 °F 89% 29.81 in 10.0 mi South 8.1 mph - N/A   Clear
8:53 AM 43.0 °F 38.8 °F 39.0 °F 86% 29.81 in 10.0 mi SSW 6.9 mph - N/A   Clear
9:53 AM 50.0 °F - 41.0 °F 71% 29.82 in 10.0 mi West 10.4 mph - N/A   Clear
10:53 AM 55.9 °F - 44.1 °F 64% 29.82 in 10.0 mi WNW 11.5 mph - N/A   Clear
11:53 AM 61.0 °F - 45.0 °F 56% 29.82 in 10.0 mi WNW 10.4 mph - N/A   Clear
12:53 PM 66.0 °F - 44.1 °F 45% 29.83 in 10.0 mi NW 15.0 mph - N/A   Clear
1:53 PM 69.1 °F - 43.0 °F 39% 29.82 in 10.0 mi NW 16.1 mph - N/A   Clear
2:53 PM 70.0 °F - 39.9 °F 33% 29.81 in 10.0 mi NNW 18.4 mph - N/A   Clear
3:53 PM 70.0 °F - 39.9 °F 33% 29.83 in 10.0 mi NNW 18.4 mph - N/A   Clear
4:53 PM 69.1 °F - 41.0 °F 36% 29.85 in 10.0 mi NNW 21.9 mph - N/A   Clear
5:53 PM 64.9 °F - 42.1 °F 43% 29.86 in 10.0 mi North 12.7 mph - N/A   Clear
6:53 PM 57.9 °F - 39.9 °F 51% 29.90 in 10.0 mi North 6.9 mph - N/A   Clear
7:53 PM 51.1 °F - 39.9 °F 66% 29.91 in 10.0 mi Calm Calm - N/A   Clear
8:53 PM 48.0 °F - 39.0 °F 71% 29.92 in 10.0 mi WSW 4.6 mph - N/A   Clear
9:53 PM 46.9 °F - 37.9 °F 71% 29.93 in 10.0 mi WSW 3.5 mph - N/A   Clear
10:53 PM 48.0 °F - 37.0 °F 66% 29.92 in 10.0 mi West 5.8 mph - N/A   Clear
11:53 PM 44.1 °F 39.0 °F 36.0 °F 73% 29.94 in 10.0 mi WNW 9.2 mph - N/A   Clear